This is the latest recevied weather packets stored in our database for station/object EA3FL-15. If no packets are shown the sender has not sent any weather packets the latest 10 day(s).
| Time | Temp. | Humidity | Pressure | Rain* | Wind** | Luminosity | Snow |
|---|---|---|---|---|---|---|---|
| 1777824601 | 18.33° C | 100% | 1017.9 hPa | - | - | - | - |
| 1777823701 | 18.33° C | 100% | 1017.8 hPa | - | - | - | - |
| 1777822801 | 18.33° C | 100% | 1017.7 hPa | - | - | - | - |
| 1777821901 | 18.89° C | 100% | 1017.7 hPa | - | - | - | - |
| 1777821003 | 18.89° C | 100% | 1017.5 hPa | - | - | - | - |
| 1777820103 | 19.44° C | 100% | 1017.5 hPa | - | - | - | - |
| 1777819204 | 20° C | 100% | 1017.7 hPa | - | - | - | - |
| 1777818303 | 21.11° C | 100% | 1017.9 hPa | - | - | - | - |
| 1777817403 | 20.56° C | 100% | 1018.2 hPa | - | - | - | - |
| 1777816503 | 20.56° C | 100% | 1018.5 hPa | - | - | - | - |
| 1777815603 | 20.56° C | 100% | 1018.8 hPa | - | - | - | - |
| 1777814703 | 20.56° C | 100% | 1018.9 hPa | - | - | - | - |
| 1777812903 | 20.56° C | 100% | 1019.1 hPa | - | - | - | - |
| 1777812003 | 21.11° C | 100% | 1019.1 hPa | - | - | - | - |
| 1777811102 | 21.67° C | 100% | 1019 hPa | - | - | - | - |
| 1777810202 | 21.67° C | 100% | 1019.2 hPa | - | - | - | - |
| 1777809302 | 21.11° C | 100% | 1019.5 hPa | - | - | - | - |
| 1777808402 | 20.56° C | 100% | 1019.7 hPa | - | - | - | - |
| 1777807502 | 20° C | 100% | 1019.8 hPa | - | - | - | - |
| 1777806602 | 20° C | 100% | 1020 hPa | - | - | - | - |
| 1777805701 | 19.44° C | 100% | 1020.1 hPa | - | - | - | - |
| 1777804804 | 20.56° C | 100% | 1020.3 hPa | - | - | - | - |
| 1777803901 | 19.44° C | 100% | 1020.2 hPa | - | - | - | - |
| 1777803001 | 18.89° C | 100% | 1020.5 hPa | - | - | - | - |
| 1777802101 | 18.89° C | 100% | 1020.6 hPa | - | - | - | - |
* Rain since midnight (hover to see other rain measurements)
** Current wind speed in m/s (hover to see current wind gust speed)